[[{"header":{"parameterUnit":"m.s-1","parameterCategory":1,"la1":30.2991,"la2":30.254,"lo1":-89.0895,"lo2":-89.0444,"dy":0.0017,"dx":0.0017,"nx":28,"ny":28,"refTime":"2026-02-14T09:00:00:Z","depth":0,"parameterNumber":2,"parameterNumberName":"U-component_of_WINDS"},"data":[0,0,0,0,0,0,0,0,0,0,0,0,0,0,0,0,0,0,0,0,0,0,0,0,0,0,0,0,0,0,0,0,0,0,0,0,0,0,0,0,0,0,0,0,0,0,0,0,0,0,0,0,0,0,0,0,0,0,-5.5033,-5.5034,0,-5.5118,-5.5119,-5.512,-5.509,-5.5088,-5.5087,-5.5085,-5.5164,-5.5168,-5.5171,0,0,0,0,0,0,0,0,0,0,0,0,0,-5.4836,-5.484,-5.5033,-5.5034,-5.5035,-5.5118,-5.5119,-5.5121,-5.5091,-5.5088,-5.5086,-5.5084,-5.5163,-5.5167,-5.5172,0,0,0,0,0,0,0,0,0,0,0,0,0,-5.4922,-5.4841,-5.5033,-5.503,-5.5031,-5.5118,-5.512,-5.5121,-5.5091,-5.5088,-5.5085,-5.5083,-5.5161,-5.5167,-5.5172,-5.5264,0,0,-5.519,-5.5193,0,0,0,0,0,0,0,0,-5.4917,-5.4929,-5.503,-5.5031,-5.5032,-5.5091,-5.5079,-5.5169,-5.5092,-5.5068,-5.5085,-5.5081,-5.5141,-5.5149,-5.517,-5.5268,-5.5271,-5.5191,-5.5194,-5.5197,-5.5198,0,0,0,0,0,0,0,-5.4911,-5.4925,-5.5066,-5.5031,-5.5032,-5.5023,-5.5032,-5.5096,-5.5119,-5.507,-5.5068,-5.5079,-5.5141,-5.5165,-5.5172,-5.5272,-5.519,-5.5196,-5.5199,-5.5201,-5.5449,-5.5452,0,0,0,0,0,0,-5.4906,-5.492,-5.5064,-5.5069,-5.4966,-5.5028,-5.5039,-5.5075,-5.5118,-5.5123,-5.5081,-5.5077,-5.5157,-5.5165,-5.5175,-5.5284,-5.5196,-5.5202,-5.5205,-5.5445,-5.5449,-5.5453,0,0,0,0,0,0,-5.4902,-5.4919,-5.506,-5.4994,-5.5012,-5.5035,-5.5076,-5.5078,-5.5102,-5.5127,-5.513,-5.5102,-5.5155,-5.5167,-5.5243,-5.5286,-5.5205,-5.521,-5.5442,-5.5447,-5.5451,-5.5504,0,0,0,0,0,0,-5.4896,-5.4918,-5.4954,-5.4996,-5.5015,-5.5129,-5.5078,-5.5082,-5.5113,-5.5108,-5.5147,-5.5151,-5.5153,-5.5234,-5.5248,-5.5293,-5.5214,-5.5438,-5.5444,-5.5449,-5.5498,-5.551,-5.552,0,0,0,0,0,-5.4889,-5.4964,-5.4956,-5.4974,-5.5062,-5.5132,-5.5143,-5.5147,-5.5116,-5.5152,-5.5169,-5.5149,-5.528,-5.5242,-5.5258,-5.5305,-5.5435,-5.5442,-5.5449,-5.5493,-5.5508,-5.5519,0,0,0,0,0,0,-5.4924,-5.4969,-5.4961,-5.5052,-5.5089,-5.5127,-5.5172,-5.5161,-5.5205,-5.5198,-5.5199,-5.5208,-5.5286,-5.5303,-5.526,-5.5396,-5.5353,-5.5363,-5.5381,-5.5395,-5.5405,-5.5398,-5.5219,0,0,0,0,0,-5.4943,-5.4998,-5.5034,-5.511,-5.513,-5.5148,-5.5178,-5.5179,-5.5215,-5.5229,-5.5251,-5.5285,-5.5334,-5.5366,-5.5412,-5.5502,-5.5508,-5.5542,-5.5552,-5.5561,-5.5569,-5.5616,-5.5631,-5.5476,-5.5475,-5.5475,0,0,-5.498,-5.5012,-5.5047,-5.5118,-5.5147,-5.5201,-5.5161,-5.522,-5.526,-5.5237,-5.5311,-5.5329,-5.5366,-5.545,-5.5487,-5.5466,-5.5614,-5.557,-5.5577,-5.558,-5.5625,-5.564,-5.5653,-5.548,-5.5479,-5.5479,0,0,-5.5077,-5.5109,-5.5175,-5.5206,-5.525,-5.5262,-5.5279,-5.5319,-5.5331,-5.5405,-5.539,-5.5436,-5.552,-5.5548,-5.5572,-5.5683,-5.5666,-5.5698,-5.5752,-5.5798,-5.581,-5.5821,-5.5858,-5.5872,-5.5706,-5.5706,-5.5706,0,-5.5118,-5.5203,-5.521,-5.5272,-5.5303,-5.5289,-5.5355,-5.5383,-5.544,-5.546,-5.5437,-5.5543,-5.5568,-5.5656,-5.5684,-5.5705,-5.5721,-5.5691,-5.5809,-5.5819,-5.583,-5.5865,-5.5879,-5.571,-5.5709,-5.5709,-5.5709,0,-5.5249,-5.5308,-5.5357,-5.5415,-5.5452,-5.5515,-5.553,-5.5566,-5.5564,-5.5578,-5.5653,-5.5683,-5.5735,-5.5756,-5.5754,-5.5845,-5.583,-5.5808,-5.5764,-5.5848,-5.5881,-5.5894,-5.5715,-5.5713,-5.5712,-5.5711,0,0,-5.5366,-5.5431,-5.5448,-5.5474,-5.5524,-5.5568,-5.5631,-5.5685,-5.5714,-5.5754,-5.5805,-5.5878,-5.5858,-5.5887,-5.5887,-5.5928,-5.6011,-5.5901,-5.5901,-5.5918,-5.6111,-5.6125,-5.6141,-5.6002,-5.6005,-5.6007,-5.6107,0,-5.5466,-5.5579,-5.5588,-5.5688,-5.5742,-5.5731,-5.5785,-5.582,-5.5835,-5.5881,-5.5896,-5.5947,-5.5918,-5.5935,-5.5976,-5.5992,-5.6049,-5.5986,-5.6045,-5.6048,-5.6033,-5.6159,-5.6174,-5.6267,-5.612,-5.6122,-5.6124,0,-5.5595,-5.5643,-5.5749,-5.5792,-5.5815,-5.5864,-5.5914,-5.5959,-5.5997,-5.6005,-5.6039,-5.6034,-5.6096,-5.6053,-5.6137,-5.6094,-5.6119,-5.6131,-5.6135,-5.6137,-5.6088,-5.6162,-5.6297,-5.6309,-5.6145,-5.6143,-5.6142,0,-5.5667,-5.5758,-5.5833,-5.5856,-5.5908,-5.5943,-5.5966,-5.6003,-5.6034,-5.6078,-5.6098,-5.6147,-5.6173,-5.621,-5.6218,-5.6186,-5.6301,-5.6259,-5.6306,-5.6306,-5.6328,-5.6326,-5.6466,-5.635,-5.6349,-5.6349,-5.6349,0,-5.5775,-5.584,-5.5866,-5.5912,-5.5984,-5.5994,-5.6064,-5.6085,-5.6118,-5.6166,-5.6159,-5.6203,-5.6213,-5.6258,-5.6265,-5.6332,-5.6344,-5.635,-5.6351,-5.6349,-5.6348,-5.6363,-5.6356,-5.6353,-5.6352,-5.6351,-5.6351,0,-5.5866,-5.5887,-5.5968,-5.6012,-5.6025,-5.6076,-5.6112,-5.6155,-5.6171,-5.6231,-5.6246,-5.6269,-5.6323,-5.6336,-5.6399,-5.6403,-5.6482,-5.6478,-5.6469,-5.6468,-5.6514,-5.6508,-5.6666,-5.6686,-5.656,-5.6561,-5.6562,0,-5.5932,-5.5982,-5.6033,-5.6066,-5.6092,-5.6145,-5.6178,-5.6191,-5.6225,-5.6275,-5.6311,-5.6365,-5.6408,-5.6493,-5.6514,-5.6562,-5.6557,-5.6609,-5.6563,-5.656,-5.6554,-5.655,-5.6554,-5.6616,-5.6617,-5.6619,-5.6619,0,-5.6046,-5.6054,-5.6104,-5.6159,-5.62,-5.6242,-5.6282,-5.6309,-5.6327,-5.6365,-5.6422,-5.6456,-5.6522,-5.6574,-5.6623,-5.6643,-5.6633,-5.6635,-5.6647,-5.6645,-5.6637,-5.6639,-5.649,-5.663,-5.6629,-5.6628,-5.6627,-5.6627,-5.6124,-5.6168,-5.6211,-5.6267,-5.63,-5.6338,-5.6381,-5.6404,-5.6452,-5.6509,-5.6513,-5.6574,-5.6611,-5.6676,-5.67,-5.6746,-5.6729,-5.6749,-5.6753,-5.6757,-5.676,-5.6633,-5.6755,-5.6755,-5.6754,-5.6754,-5.6754,0,-5.6235,-5.6263,-5.6315,-5.6374,-5.6418,-5.641,-5.6454,-5.649,-5.6545,-5.6582,-5.6626,-5.669,-5.6742,-5.6768,-5.6818,-5.685,-5.6846,-5.6862,-5.6858,-5.6862,-5.6773,-5.6755,-5.6864,-5.6864,-5.6864,-5.6864,-5.6864,-5.6864,-5.6298,-5.6372,-5.6386,-5.6475,-5.6502,-5.6564,-5.659,-5.6624,-5.6654,-5.6728,-5.6772,-5.679,-5.6822,-5.6875,-5.6921,-5.6927,-5.6944,-5.6962,-5.6966,-5.688,-5.6869,-5.6858,-5.6842,-5.6967,-5.6967,-5.7051,-5.7052,-5.7052]},{"header":{"parameterUnit":"m.s-1","parameterCategory":1,"la1":30.2991,"la2":30.254,"lo1":-89.0895,"lo2":-89.0444,"dy":0.0017,"dx":0.0017,"nx":28,"ny":28,"refTime":"2026-02-14T09:00:00:Z","depth":0,"parameterNumber":3,"parameterNumberName":"V-component_of_WINDS"},"data":[0,0,0,0,0,0,0,0,0,0,0,0,0,0,0,0,0,0,0,0,0,0,0,0,0,0,0,0,0,0,0,0,0,0,0,0,0,0,0,0,0,0,0,0,0,0,0,0,0,0,0,0,0,0,0,0,0,0,3.3329,3.333,0,3.3452,3.3454,3.3455,3.3479,3.3478,3.3477,3.3476,3.36,3.3604,3.3608,0,0,0,0,0,0,0,0,0,0,0,0,0,3.3114,3.3118,3.3329,3.333,3.3332,3.3452,3.3454,3.3455,3.3479,3.3478,3.3477,3.3476,3.3599,3.3604,3.3609,0,0,0,0,0,0,0,0,0,0,0,0,0,3.3219,3.3119,3.3329,3.3358,3.3362,3.3452,3.3454,3.3456,3.348,3.3478,3.3477,3.3475,3.3597,3.3603,3.3609,3.3677,0,0,3.3628,3.3631,0,0,0,0,0,0,0,0,3.3213,3.3227,3.3353,3.3357,3.3361,3.3449,3.3423,3.353,3.348,3.3435,3.3476,3.3475,3.3551,3.3561,3.3587,3.3682,3.3688,3.3629,3.3633,3.3635,3.3637,0,0,0,0,0,0,0,3.3206,3.3222,3.3378,3.3354,3.336,3.3366,3.3379,3.3444,3.3499,3.3439,3.3441,3.3455,3.3553,3.3581,3.359,3.3689,3.3629,3.3634,3.3638,3.3641,3.385,3.3852,0,0,0,0,0,0,3.3194,3.3216,3.3374,3.3381,3.3282,3.3371,3.3386,3.3422,3.3499,3.3509,3.3456,3.3456,3.3571,3.3583,3.3594,3.3681,3.3635,3.3641,3.3645,3.3848,3.3851,3.3853,0,0,0,0,0,0,3.3189,3.3207,3.3369,3.3299,3.332,3.3376,3.3417,3.3425,3.3453,3.3512,3.3522,3.3475,3.357,3.3586,3.3657,3.3686,3.3644,3.365,3.3846,3.3849,3.3852,3.3854,0,0,0,0,0,0,3.3183,3.3206,3.3232,3.33,3.3324,3.3429,3.3418,3.3429,3.3464,3.3465,3.3532,3.3542,3.357,3.3648,3.3663,3.3694,3.3655,3.3844,3.3848,3.3851,3.3851,3.3856,3.386,0,0,0,0,0,3.3175,3.3226,3.3233,3.3252,3.3358,3.3431,3.3445,3.3477,3.3467,3.3494,3.3532,3.3539,3.368,3.3655,3.3673,3.3705,3.3842,3.3847,3.3851,3.3849,3.3855,3.386,0,0,0,0,0,0,3.3158,3.3235,3.3244,3.3318,3.3368,3.3435,3.347,3.3482,3.3535,3.3533,3.3571,3.3585,3.3656,3.3687,3.3658,3.3776,3.376,3.3768,3.3753,3.376,3.3764,3.3756,3.366,0,0,0,0,0,3.3163,3.3217,3.3281,3.3341,3.3365,3.3413,3.3446,3.3468,3.352,3.3541,3.3584,3.3635,3.3691,3.3726,3.378,3.3855,3.3872,3.3887,3.3891,3.3895,3.3902,3.3947,3.3956,3.3866,3.3866,3.3866,0,0,3.3174,3.3223,3.3254,3.3339,3.338,3.3435,3.3431,3.3488,3.353,3.3549,3.3621,3.3654,3.3713,3.3788,3.3823,3.3816,3.393,3.39,3.3902,3.3908,3.3952,3.3961,3.3968,3.3869,3.3868,3.3868,0,0,3.3223,3.3264,3.332,3.3362,3.3425,3.3457,3.3471,3.3537,3.356,3.3633,3.365,3.3699,3.3793,3.3836,3.387,3.3938,3.3948,3.3954,3.3978,3.4022,3.4029,3.4036,3.4063,3.4072,3.396,3.396,3.396,0,3.3229,3.3313,3.3347,3.3406,3.3444,3.3465,3.3523,3.3562,3.3639,3.3664,3.3656,3.3778,3.3818,3.3905,3.3922,3.3948,3.3966,3.3948,3.4025,3.4032,3.4039,3.4065,3.4075,3.3961,3.3961,3.3961,3.3961,0,3.3318,3.3377,3.3414,3.3491,3.3532,3.359,3.3633,3.3671,3.3689,3.3722,3.3797,3.3847,3.3914,3.3935,3.3952,3.4025,3.402,3.4018,3.4003,3.4048,3.4073,3.4083,3.3962,3.3962,3.3962,3.3961,0,0,3.336,3.3456,3.347,3.3506,3.3579,3.3624,3.3683,3.375,3.3783,3.3836,3.3888,3.3969,3.3969,3.4007,3.4029,3.4067,3.4122,3.4061,3.4063,3.4073,3.4209,3.4212,3.4223,3.4128,3.413,3.4132,3.4205,0,3.342,3.3528,3.3561,3.3652,3.3708,3.373,3.3782,3.3832,3.3865,3.3917,3.3953,3.4011,3.4005,3.4029,3.4067,3.4107,3.415,3.4102,3.4179,3.4181,3.4166,3.4236,3.4239,3.4306,3.4215,3.4217,3.4218,0,3.3504,3.3561,3.3657,3.3726,3.375,3.3796,3.3862,3.3911,3.3969,3.399,3.4035,3.4055,3.4118,3.4099,3.4188,3.4155,3.4188,3.4213,3.4216,3.4226,3.4204,3.4251,3.4327,3.4338,3.4234,3.4232,3.4231,0,3.3529,3.3629,3.3701,3.373,3.3811,3.3844,3.3878,3.3935,3.3974,3.4031,3.4057,3.4119,3.4154,3.4203,3.4239,3.4221,3.4327,3.4309,3.4348,3.4347,3.4371,3.4369,3.4456,3.4388,3.4387,3.4387,3.4387,0,3.3594,3.3652,3.3713,3.3758,3.3825,3.3863,3.3929,3.3965,3.4015,3.4068,3.4089,3.4138,3.4182,3.4237,3.4265,3.4337,3.4352,3.4372,3.4379,3.4372,3.437,3.4396,3.4393,3.439,3.4389,3.4389,3.4388,0,3.3633,3.3676,3.3756,3.3827,3.3846,3.3893,3.3953,3.3998,3.4032,3.4098,3.4116,3.4169,3.4235,3.4276,3.4358,3.4378,3.4458,3.4462,3.4439,3.4443,3.4481,3.4478,3.459,3.4608,3.4524,3.4525,3.4525,0,3.3673,3.372,3.3796,3.3833,3.3869,3.3928,3.3969,3.4009,3.405,3.4122,3.4158,3.4225,3.4282,3.4386,3.4432,3.4496,3.4504,3.4539,3.4514,3.4506,3.4509,3.4507,3.4513,3.4544,3.4544,3.4545,3.4546,0,3.3741,3.376,3.3818,3.3885,3.3934,3.3988,3.4041,3.407,3.4119,3.4165,3.4234,3.4278,3.4364,3.4431,3.45,3.4536,3.455,3.4553,3.4566,3.456,3.4546,3.4557,3.4454,3.4551,3.455,3.455,3.4549,3.4549,3.3784,3.3828,3.3889,3.3954,3.3999,3.405,3.4096,3.4137,3.4196,3.427,3.4289,3.4362,3.4421,3.4515,3.4553,3.4611,3.4606,3.4623,3.4628,3.4633,3.4636,3.4535,3.4623,3.4623,3.4622,3.4622,3.4622,0,3.3855,3.3897,3.3956,3.4032,3.4084,3.4093,3.4154,3.4196,3.426,3.4315,3.4371,3.4451,3.4517,3.4569,3.4638,3.4674,3.4683,3.4691,3.469,3.4699,3.4634,3.4618,3.4684,3.4683,3.4683,3.4683,3.4683,3.4683,3.3899,3.3975,3.4002,3.4101,3.4141,3.4214,3.4248,3.4296,3.434,3.4429,3.4485,3.4519,3.4573,3.4646,3.4708,3.4722,3.4747,3.4755,3.477,3.4709,3.4703,3.4697,3.4682,3.4759,3.476,3.4831,3.4831,3.4832]}]]